When you browse on this site, cookies collect data to enhance your experience and personalize the content and advertising you see.
Visit our Privacy Policy to learn more. By continuing to use the site, you agree to this use of cookies and data.
  • Em Portugal
  • Lista de países
  • Para 7 dias
  • Temperatura da água
  • Mapas de satélite
  • Mapa do tempo
  • Widgets de tempo
  • user-avatar
    Iniciar Sessão

    Previsão horária em Sergincy

    Hoje, 20 Julho, Sábado

    Tempo Temperatura Precipitação Vento Pressão Humidade
    00:00 +18°C° 0.6 mm 1 m/s 740 mmHg 92%
    01:00 +16°C° 0.6 mm 1 m/s 740 mmHg 94%
    02:00 +16°C° 0.1 mm 1 m/s 740 mmHg 94%
    03:00 +16°C° 0.1 mm 1 m/s 740 mmHg 95%
    04:00 +15°C° 0.1 mm 1 m/s 740 mmHg 95%
    05:00 +16°C° 0 mm 1 m/s 741 mmHg 94%
    06:00 +18°C° 0 mm 1 m/s 741 mmHg 92%
    07:00 +19°C° 0 mm 1 m/s 741 mmHg 90%
    08:00 +20°C° 0 mm 1 m/s 741 mmHg 81%
    09:00 +21°C° 0 mm 2 m/s 741 mmHg 72%
    10:00 +24°C° 0 mm 2 m/s 741 mmHg 63%
    11:00 +25°C° 0 mm 2 m/s 742 mmHg 60%
    12:00 +26°C° 0 mm 2 m/s 742 mmHg 57%
    13:00 +27°C° 0 mm 3 m/s 742 mmHg 55%
    14:00 +27°C° 0 mm 3 m/s 742 mmHg 54%
    15:00 +28°C° 0 mm 2 m/s 742 mmHg 53%
    16:00 +28°C° 0 mm 2 m/s 742 mmHg 52%
    17:00 +27°C° 0 mm 2 m/s 742 mmHg 59%
    18:00 +26°C° 0 mm 2 m/s 742 mmHg 65%
    19:00 +25°C° 0 mm 2 m/s 742 mmHg 72%
    20:00 +23°C° 0 mm 2 m/s 742 mmHg 78%
    21:00 +20°C° 0 mm 2 m/s 742 mmHg 83%
    22:00 +18°C° 0 mm 2 m/s 742 mmHg 88%
    23:00 +19°C° 0 mm 1 m/s 742 mmHg 90%

    Amanhã, 21 Julho, Domingo

    Tempo Temperatura Precipitação Vento Pressão Humidade
    00:00 +18°C° 0 mm 1 m/s 742 mmHg 93%
    01:00 +16°C° 0 mm 1 m/s 742 mmHg 95%
    02:00 +16°C° 0 mm 1 m/s 742 mmHg 95%
    03:00 +16°C° 0 mm 1 m/s 742 mmHg 96%
    04:00 +15°C° 0 mm 1 m/s 742 mmHg 96%
    05:00 +16°C° 0 mm 2 m/s 742 mmHg 92%
    06:00 +17°C° 0 mm 2 m/s 742 mmHg 88%
    07:00 +19°C° 0 mm 2 m/s 742 mmHg 84%
    08:00 +20°C° 0 mm 2 m/s 742 mmHg 76%
    09:00 +21°C° 0 mm 2 m/s 741 mmHg 69%
    10:00 +24°C° 0 mm 3 m/s 741 mmHg 62%
    11:00 +25°C° 0 mm 3 m/s 741 mmHg 59%
    12:00 +25°C° 0 mm 3 m/s 741 mmHg 56%
    13:00 +26°C° 0 mm 3 m/s 741 mmHg 53%
    14:00 +26°C° 0 mm 3 m/s 741 mmHg 54%
    15:00 +26°C° 0 mm 3 m/s 741 mmHg 55%
    16:00 +26°C° 0 mm 3 m/s 741 mmHg 56%
    17:00 +25°C° 0.2 mm 3 m/s 741 mmHg 63%
    18:00 +23°C° 0.2 mm 2 m/s 741 mmHg 71%
    19:00 +21°C° 0.2 mm 2 m/s 741 mmHg 78%
    20:00 +20°C° 0 mm 2 m/s 741 mmHg 83%
    21:00 +18°C° 0 mm 2 m/s 740 mmHg 88%
    22:00 +16°C° 0 mm 2 m/s 740 mmHg 93%
    23:00 +16°C° 0 mm 2 m/s 740 mmHg 94%

    Depois de amanhã, 22 Julho, Segunda-feira

    Tempo Temperatura Precipitação Vento Pressão Humidade
    00:00 +15°C° 0 mm 2 m/s 740 mmHg 95%
    01:00 +15°C° 0 mm 1 m/s 740 mmHg 96%
    02:00 +14°C° 0 mm 1 m/s 740 mmHg 97%
    03:00 +14°C° 0 mm 1 m/s 740 mmHg 97%
    04:00 +14°C° 0 mm 1 m/s 740 mmHg 97%
    05:00 +15°C° 0 mm 1 m/s 740 mmHg 94%
    06:00 +16°C° 0 mm 2 m/s 740 mmHg 91%
    07:00 +17°C° 0 mm 2 m/s 740 mmHg 88%
    08:00 +19°C° 0 mm 2 m/s 740 mmHg 79%
    09:00 +21°C° 0 mm 2 m/s 739 mmHg 70%
    10:00 +23°C° 0 mm 2 m/s 739 mmHg 61%
    11:00 +23°C° 0.5 mm 2 m/s 739 mmHg 66%
    12:00 +22°C° 0.5 mm 3 m/s 739 mmHg 71%
    13:00 +22°C° 0.5 mm 3 m/s 739 mmHg 75%
    14:00 +23°C° 0.7 mm 2 m/s 739 mmHg 73%
    15:00 +24°C° 0.7 mm 2 m/s 739 mmHg 70%
    16:00 +24°C° 0.7 mm 2 m/s 739 mmHg 68%
    17:00 +23°C° 0.6 mm 2 m/s 739 mmHg 74%
    18:00 +21°C° 0.6 mm 2 m/s 739 mmHg 81%
    19:00 +20°C° 0.6 mm 2 m/s 739 mmHg 88%
    20:00 +19°C° 0.1 mm 2 m/s 739 mmHg 91%
    21:00 +17°C° 0.1 mm 2 m/s 739 mmHg 94%
    22:00 +16°C° 0.1 mm 2 m/s 739 mmHg 96%
    23:00 +15°C° 0 mm 2 m/s 739 mmHg 97%

    23 Julho, Terça-feira

    Tempo Temperatura Precipitação Vento Pressão Humidade
    00:00 +15°C° 0 mm 2 m/s 739 mmHg 97%
    01:00 +14°C° 0 mm 2 m/s 739 mmHg 98%
    02:00 +14°C° 0 mm 2 m/s 739 mmHg 98%
    03:00 +13°C° 0 mm 1 m/s 739 mmHg 98%
    04:00 +13°C° 0 mm 1 m/s 739 mmHg 98%
    05:00 +14°C° 0 mm 1 m/s 739 mmHg 97%
    06:00 +15°C° 0 mm 2 m/s 740 mmHg 95%
    07:00 +16°C° 0 mm 2 m/s 740 mmHg 94%
    08:00 +17°C° 0 mm 2 m/s 740 mmHg 87%
    09:00 +19°C° 0 mm 2 m/s 740 mmHg 79%
    10:00 +20°C° 0 mm 2 m/s 740 mmHg 72%
    11:00 +21°C° 0.3 mm 2 m/s 740 mmHg 73%
    12:00 +22°C° 0.3 mm 1 m/s 740 mmHg 73%
    13:00 +22°C° 0.3 mm 1 m/s 741 mmHg 74%
    14:00 +21°C° 0.7 mm 2 m/s 741 mmHg 77%
    15:00 +21°C° 0.7 mm 2 m/s 741 mmHg 81%
    16:00 +21°C° 0.7 mm 2 m/s 741 mmHg 84%
    17:00 +20°C° 0.3 mm 2 m/s 741 mmHg 87%
    18:00 +20°C° 0.3 mm 2 m/s 741 mmHg 89%
    19:00 +20°C° 0.3 mm 1 m/s 741 mmHg 91%
    20:00 +19°C° 0.1 mm 1 m/s 741 mmHg 93%
    21:00 +17°C° 0.1 mm 2 m/s 741 mmHg 94%
    22:00 +16°C° 0.1 mm 2 m/s 741 mmHg 95%
    23:00 +16°C° 0 mm 2 m/s 741 mmHg 96%

    24 Julho, Quarta-feira

    Tempo Temperatura Precipitação Vento Pressão Humidade
    00:00 +16°C° 0 mm 1 m/s 742 mmHg 96%
    01:00 +15°C° 0 mm 1 m/s 742 mmHg 96%
    02:00 +15°C° 0 mm 1 m/s 742 mmHg 96%
    03:00 +15°C° 0 mm 1 m/s 742 mmHg 96%
    04:00 +15°C° 0 mm 1 m/s 742 mmHg 96%
    05:00 +16°C° 0 mm 1 m/s 743 mmHg 94%
    06:00 +18°C° 0 mm 1 m/s 743 mmHg 92%
    07:00 +19°C° 0 mm 1 m/s 743 mmHg 90%
    08:00 +21°C° 0 mm 1 m/s 743 mmHg 79%
    09:00 +23°C° 0 mm 1 m/s 744 mmHg 68%
    10:00 +26°C° 0 mm 1 m/s 744 mmHg 57%
    11:00 +27°C° 0 mm 1 m/s 744 mmHg 52%
    12:00 +28°C° 0 mm 1 m/s 744 mmHg 47%
    13:00 +29°C° 0 mm 1 m/s 745 mmHg 42%
    14:00 +29°C° 0 mm 1 m/s 745 mmHg 44%
    15:00 +28°C° 0 mm 1 m/s 745 mmHg 45%
    16:00 +28°C° 0 mm 1 m/s 745 mmHg 46%
    17:00 +27°C° 0 mm 1 m/s 745 mmHg 54%
    18:00 +26°C° 0 mm 1 m/s 745 mmHg 61%
    19:00 +24°C° 0 mm 2 m/s 745 mmHg 69%
    20:00 +22°C° 0.1 mm 1 m/s 745 mmHg 74%
    21:00 +20°C° 0.1 mm 1 m/s 745 mmHg 79%
    22:00 +16°C° 0.1 mm 0 m/s 746 mmHg 84%
    23:00 +16°C° 0 mm 0 m/s 746 mmHg 85%

    25 Julho, Quinta-feira

    Tempo Temperatura Precipitação Vento Pressão Humidade
    00:00 +15°C° 0 mm 0 m/s 746 mmHg 87%
    01:00 +15°C° 0 mm 0 m/s 746 mmHg 88%
    02:00 +15°C° 0 mm 0 m/s 746 mmHg 89%
    03:00 +14°C° 0 mm 0 m/s 746 mmHg 90%
    04:00 +14°C° 0 mm 0 m/s 746 mmHg 91%
    05:00 +16°C° 0 mm 0 m/s 747 mmHg 86%
    06:00 +17°C° 0 mm 0 m/s 747 mmHg 81%
    07:00 +19°C° 0 mm 0 m/s 747 mmHg 77%
    08:00 +21°C° 0 mm 0 m/s 747 mmHg 69%
    09:00 +23°C° 0 mm 0 m/s 747 mmHg 62%
    10:00 +25°C° 0 mm 0 m/s 747 mmHg 55%
    11:00 +26°C° 0 mm 0 m/s 747 mmHg 51%
    12:00 +29°C° 0 mm 1 m/s 747 mmHg 48%
    13:00 +29°C° 0 mm 1 m/s 747 mmHg 45%
    14:00 +29°C° 0 mm 1 m/s 747 mmHg 46%
    15:00 +29°C° 0 mm 1 m/s 747 mmHg 46%
    16:00 +29°C° 0 mm 1 m/s 746 mmHg 47%
    17:00 +27°C° 0 mm 1 m/s 746 mmHg 54%
    18:00 +26°C° 0 mm 1 m/s 746 mmHg 61%
    19:00 +25°C° 0 mm 1 m/s 746 mmHg 68%
    20:00 +23°C° 0 mm 1 m/s 746 mmHg 72%
    21:00 +20°C° 0 mm 0 m/s 746 mmHg 76%
    22:00 +18°C° 0 mm 0 m/s 746 mmHg 80%
    23:00 +17°C° 0 mm 0 m/s 746 mmHg 82%
    Mostrar mais